Date,TemperatureHighF,TemperatureAvgF,TemperatureLowF,DewpointHighF,DewpointAvgF,DewpointLowF,HumidityHigh,HumidityAvg,HumidityLow,PressureMaxIn,PressureMinIn,WindSpeedMaxMPH,WindSpeedAvgMPH,GustSpeedMaxMPH,PrecipitationSumIn
2013-6-1,77,70,64,67,64,60,97,82,60,29.69,29.53,24,5,24,0.22
2013-6-2,64,53,41,63,49,39,98,87,70,29.94,29.52,19,5,20,0.03
2013-6-3,66,51,34,48,42,33,100,73,41,30.03,29.93,19,2,19,0.00
2013-6-4,72,58,44,52,46,41,96,67,44,30.12,30.02,11,1,11,0.00
2013-6-5,68,59,55,51,46,37,80,64,36,30.08,29.92,15,1,16,0.04
2013-6-6,66,57,52,54,50,47,91,78,59,29.94,29.81,13,2,14,0.06
2013-6-7,74,60,47,52,49,45,95,69,40,29.87,29.76,15,2,16,0.00
2013-6-8,73,61,48,57,52,48,98,74,48,29.95,29.81,8,1,9,0.00
2013-6-9,79,67,55,64,58,52,92,74,57,29.97,29.81,17,3,18,0.00
2013-6-10,68,64,60,65,61,55,99,91,67,29.81,29.66,10,2,11,0.12
2013-6-11,79,66,57,69,62,57,100,88,66,29.83,29.72,16,3,16,0.01
2013-6-12,75,66,58,68,63,57,100,92,73,29.83,29.55,13,1,13,0.61
2013-6-13,76,66,57,64,59,54,99,79,55,29.88,29.53,23,4,23,0.47
2013-6-14,78,64,52,57,53,47,95,70,36,30.02,29.88,16,2,16,0.00
2013-6-15,74,64,50,63,58,49,96,81,64,29.97,29.75,21,2,21,0.00
2013-6-16,76,68,61,67,63,58,99,84,60,29.79,29.66,19,5,20,0.56
2013-6-17,81,68,56,63,59,55,99,75,41,29.83,29.74,35,2,36,0.56
2013-6-18,70,61,52,58,51,44,100,73,41,30.00,29.82,18,2,18,0.00
2013-6-19,74,60,43,53,46,41,97,63,33,30.09,30.00,10,1,11,0.00
2013-6-20,83,68,49,59,53,47,96,64,38,30.10,30.02,9,1,9,0.00
2013-6-21,82,74,63,68,63,54,84,68,56,30.07,29.88,18,3,18,0.00
2013-6-22,85,75,68,71,67,65,91,78,56,29.98,29.84,12,3,13,0.00
2013-6-23,86,77,68,71,68,66,95,75,53,29.92,29.81,19,4,19,0.00
2013-6-24,83,75,69,71,68,64,91,78,56,29.92,29.76,21,4,21,0.00
2013-6-25,78,70,65,70,66,63,98,90,73,29.86,29.71,21,3,21,0.49
2013-6-26,84,73,64,74,69,64,100,87,68,29.75,29.62,12,1,12,0.01
2013-6-27,83,74,65,73,68,64,99,84,60,29.64,29.55,20,2,20,0.00
2013-6-28,78,67,62,66,64,60,99,89,61,29.55,29.43,20,2,20,0.17
2013-6-29,71,65,59,64,61,59,100,90,73,29.67,29.47,14,1,14,0.02
2013-6-30,79,69,60,63,59,52,96,71,43,29.90,29.67,16,2,16,0.00